Language: 


Des rapports , des résumés tant et plus, au choix de chacun....


Données Historiques de Météogheer
Journalier Rapport pour Mars 7, 2018 Unitée:  Impériale    Métrique   Les deux
Suivant Jour »
Journalier Hebdomadaire Mensuel Annuel Sur mesure
  Max: Min: Moyenne:
Température: 46.9 °F 36 °F 41.2 °F
Point de rosée: 46.4 °F 33.8 °F 40.3 °F
Humidité: 98% 86% 95%
Vent: 16.6mph 0mph 3.3mph
Rafales: 16.6mph - -
Vent- - WSW
Pression: 29.5 in 29.2 in -
Pluie: 0.3 in    
Historical Graphs
 
 
Données tabulaires pour Mars 7, 2018
Heure Température Point de rosée Pression Vent Vent Rafales Humidité Pluie Taux (Horaire) Conditions
00:00 37 °F 35.6 °F 29.2 in NNE 2.7 mph 3.8 mph 89% 0 in
00:10 37 °F 35.6 °F 29.2 in Calm   3.4 mph 89% 0 in
00:20 36.7 °F 33.8 °F 29.2 in Calm   3.6 mph 90% 0 in
00:25 36.7 °F 33.8 °F 29.2 in Calm   2.9 mph 90% 0 in
00:30 36.5 °F 33.8 °F 29.2 in Calm   3.4 mph 90% 0 in
00:40 36.3 °F 33.8 °F 29.2 in Calm     90% 0 in
00:45 36.3 °F 33.8 °F 29.2 in Calm     91% 0 in
00:50 36.3 °F 33.8 °F 29.2 in Calm     91% 0 in
00:55 36.1 °F 33.8 °F 29.2 in Calm     91% 0 in
01:00 36 °F 33.8 °F 29.2 in Calm     91% 0 in
01:10 36.3 °F 33.8 °F 29.2 in Calm     92% 0 in
01:20 36.5 °F 35.6 °F 29.2 in Calm     92% 0 in
01:30 36.9 °F 35.6 °F 29.2 in Calm     93% 0 in
01:35 37 °F 35.6 °F 29.2 in Calm     94% 0 in
01:40 37.2 °F 35.6 °F 29.2 in Calm     94% 0 in
01:50 37.6 °F 35.6 °F 29.2 in Calm     94% 0 in
01:55 37.6 °F 35.6 °F 29.2 in Calm     94% 0 in
02:05 37.9 °F 37.4 °F 29.2 in Calm     94% 0 in
02:10 37.9 °F 37.4 °F 29.2 in Calm   1.6 mph 94% 0 in
02:20 37.9 °F 37.4 °F 29.2 in Calm     94% 0 in
02:25 37.9 °F 37.4 °F 29.2 in Calm     94% 0 in
02:30 37.9 °F 37.4 °F 29.2 in Calm     94% 0 in
02:40 38.3 °F 37.4 °F 29.2 in Calm   0.9 mph 95% 0 in
02:50 38.5 °F 37.4 °F 29.2 in Calm     95% 0 in
02:55 38.5 °F 37.4 °F 29.2 in Calm     95% 0 in
03:00 38.5 °F 37.4 °F 29.2 in Calm     95% 0 in
03:10 38.5 °F 37.4 °F 29.2 in Calm     95% 0 in
03:20 38.5 °F 37.4 °F 29.2 in Calm     95% 0 in
03:30 38.5 °F 37.4 °F 29.2 in Calm     95% 0 in
03:35 38.5 °F 37.4 °F 29.2 in Calm     95% 0 in
03:40 38.5 °F 37.4 °F 29.2 in Calm   0.9 mph 95% 0 in
03:50 38.7 °F 37.4 °F 29.2 in Calm   0.9 mph 95% 0 in
03:55 38.5 °F 37.4 °F 29.2 in Calm     95% 0 in
04:00 38.5 °F 37.4 °F 29.2 in Calm     95% 0 in
04:05 38.5 °F 37.4 °F 29.2 in Calm     95% 0 in
04:10 38.3 °F 37.4 °F 29.2 in Calm     95% 0 in
04:20 38.3 °F 37.4 °F 29.2 in Calm     95% 0 in
04:25 38.3 °F 37.4 °F 29.2 in Calm     95% 0 in
04:30 38.5 °F 37.4 °F 29.2 in Calm     95% 0 in
04:40 38.1 °F 37.4 °F 29.2 in Calm     95% 0 in
04:50 37.8 °F 37.4 °F 29.2 in Calm     94% 0 in
05:00 37.6 °F 35.6 °F 29.2 in Calm     94% 0 in
05:05 37.4 °F 35.6 °F 29.2 in Calm     94% 0 in
05:10 37.4 °F 37.4 °F 29.2 in Calm     95% 0 in
05:20 37.4 °F 37.4 °F 29.2 in Calm     95% 0 in
05:25 37.4 °F 37.4 °F 29.2 in Calm     95% 0 in
05:30 37.4 °F 37.4 °F 29.2 in Calm     95% 0 in
05:40 37.4 °F 37.4 °F 29.2 in Calm     95% 0 in
05:50 37.6 °F 37.4 °F 29.2 in Calm     96% 0 in
05:55 37.8 °F 37.4 °F 29.2 in Calm     96% 0 in
06:00 38.1 °F 37.4 °F 29.2 in Calm     96% 0 in
06:10 38.3 °F 37.4 °F 29.2 in Calm     97% 0 in
06:20 38.3 °F 37.4 °F 29.2 in Calm     96% 0 in
06:30 38.3 °F 37.4 °F 29.2 in Calm   2.7 mph 96% 0 in
06:35 38.3 °F 37.4 °F 29.2 in Calm   2.7 mph 96% 0 in
06:40 38.5 °F 37.4 °F 29.2 in Calm     96% 0 in
06:45 38.5 °F 37.4 °F 29.2 in Calm     96% 0 in
06:50 38.5 °F 37.4 °F 29.2 in Calm     96% 0 in
07:00 38.7 °F 37.4 °F 29.2 in Calm     97% 0.02 in
07:05 38.8 °F 37.4 °F 29.2 in Calm     97% 0.03 in
07:10 39 °F 39.2 °F 29.2 in Calm     98% 0.06 in
07:20 39.7 °F 39.2 °F 29.2 in Calm     98% 0.12 in
07:30 40.1 °F 41 °F 29.2 in Calm     98% 0.15 in
07:40 40.3 °F 41 °F 29.2 in Calm   2.9 mph 98% 0.17 in
07:50 40.5 °F 41 °F 29.2 in Calm     98% 0.18 in
08:00 40.6 °F 41 °F 29.2 in Calm     98% 0.16 in
08:10 40.8 °F 41 °F 29.2 in Calm   0.9 mph 98% 0.13 in
08:20 41 °F 41 °F 29.3 in Calm     98% 0.07 in
08:30 41.2 °F 41 °F 29.3 in Calm     98% 0.05 in
08:40 41.2 °F 41 °F 29.3 in Calm     98% 0.02 in
08:50 41.5 °F 42.8 °F 29.3 in Calm     98% 0.01 in
09:00 41.7 °F 42.8 °F 29.2 in Calm     98% 0.02 in
09:10 42.1 °F 42.8 °F 29.2 in Calm     98% 0.01 in
09:20 42.8 °F 42.8 °F 29.3 in Calm   1.6 mph 98% 0.01 in
09:30 43.3 °F 42.8 °F 29.3 in Calm   3.8 mph 98% 0.01 in
09:40 43.7 °F 44.6 °F 29.3 in Calm     98% 0.01 in
09:50 44.4 °F 44.6 °F 29.3 in Calm   1.3 mph 98% 0.01 in
10:00 44.6 °F 44.6 °F 29.3 in Calm   4 mph 98% 0 in
10:10 44.6 °F 44.6 °F 29.3 in Calm   4.3 mph 98% 0 in
10:20 44.4 °F 44.6 °F 29.3 in Calm     98% 0 in
10:30 45 °F 44.6 °F 29.3 in Calm   4.5 mph 98% 0 in
10:40 45.7 °F 46.4 °F 29.3 in WSW 2.7 mph 4 mph 98% 0 in
10:50 46.2 °F 46.4 °F 29.3 in Calm   5.6 mph 98% 0 in
11:00 46.6 °F 46.4 °F 29.3 in WSW 4.3 mph 6.7 mph 96% 0 in
11:10 46.2 °F 44.6 °F 29.3 in WSW 5.8 mph 6.5 mph 95% 0 in
11:20 46.6 °F 46.4 °F 29.3 in Calm   6.5 mph 95% 0 in
11:30 46.8 °F 44.6 °F 29.3 in SW 4 mph 6 mph 94% 0 in
11:40 46.8 °F 44.6 °F 29.3 in SSW 6.5 mph 7.6 mph 92% 0 in
11:50 46.9 °F 44.6 °F 29.3 in SSW 6.3 mph 7.8 mph 92% 0 in
12:00 46.9 °F 46.4 °F 29.3 in SW 6.3 mph 7.4 mph 93% 0 in
12:10 46.8 °F 44.6 °F 29.3 in SW 4 mph 7.6 mph 92% 0 in
12:20 46.8 °F 44.6 °F 29.3 in SW 6.3 mph 7.8 mph 93% 0 in
12:30 46.6 °F 44.6 °F 29.3 in SW 6.3 mph 9.6 mph 93% 0 in
12:40 46.6 °F 44.6 °F 29.3 in WSW 5.6 mph 8.1 mph 94% 0.01 in
12:50 46.8 °F 46.4 °F 29.3 in SW 4.3 mph 7.4 mph 95% 0.02 in
12:55 46.9 °F 46.4 °F 29.3 in WSW 4 mph 5.8 mph 95% 0.02 in
13:00 46.9 °F 46.4 °F 29.3 in WSW 3.6 mph 6 mph 96% 0.02 in
13:10 46.4 °F 46.4 °F 29.3 in WSW 5.4 mph 6 mph 95% 0.04 in
13:15 46 °F 44.6 °F 29.3 in SW 5.6 mph 6 mph 96% 0.04 in
13:20 46 °F 44.6 °F 29.3 in Calm   5.8 mph 96% 0.04 in
13:25 45.9 °F 44.6 °F 29.3 in SSW 6.7 mph 6.7 mph 96% 0.04 in
13:30 45.9 °F 44.6 °F 29.3 in WSW 6.3 mph 8.1 mph 97% 0.05 in
13:35 45.9 °F 44.6 °F 29.3 in West 8.1 mph 8.7 mph 97% 0.04 in
13:40 45.7 °F 44.6 °F 29.3 in WSW 5.6 mph 8.7 mph 97% 0.04 in
13:45 45.7 °F 44.6 °F 29.3 in West 5.6 mph 8.7 mph 97% 0.04 in
13:50 45.9 °F 46.4 °F 29.3 in Calm   6.7 mph 98% 0.03 in
13:55 45.9 °F 46.4 °F 29.3 in WSW 8.5 mph 8.7 mph 98% 0.03 in
14:00 45.9 °F 46.4 °F 29.3 in WSW 5.6 mph 8.7 mph 98% 0.03 in
14:05 45.7 °F 46.4 °F 29.3 in WSW 4.9 mph 8.7 mph 98% 0.02 in
14:10 45.5 °F 46.4 °F 29.3 in WSW 6.5 mph 7.8 mph 98% 0.02 in
14:20 46 °F 46.4 °F 29.3 in Calm   6.5 mph 98% 0.02 in
14:30 45.9 °F 46.4 °F 29.3 in WSW 6 mph 6.5 mph 98% 0.01 in
14:40 45.5 °F 46.4 °F 29.3 in WSW 9.8 mph 10.1 mph 98% 0.01 in
14:50 45.5 °F 46.4 °F 29.4 in WSW 7.6 mph 10.1 mph 98% 0.01 in
15:00 45.3 °F 44.6 °F 29.3 in WSW 8.7 mph 10.5 mph 98% 0.01 in
15:10 45 °F 44.6 °F 29.3 in West 15.4 mph 15.4 mph 98% 0 in
15:20 44.8 °F 44.6 °F 29.4 in West 16.6 mph 16.6 mph 98% 0.01 in
15:30 44.6 °F 44.6 °F 29.4 in West 9.4 mph 16.6 mph 98% 0.02 in
15:45 44.6 °F 44.6 °F 29.4 in WSW 8.7 mph 11 mph 98% 0.03 in
15:50 44.2 °F 44.6 °F 29.4 in WNW 12.3 mph 12.3 mph 98% 0.03 in
16:00 44.1 °F 42.8 °F 29.4 in West 4 mph 12.3 mph 97% 0.03 in
16:10 43.5 °F 42.8 °F 29.4 in West 9.6 mph 10.5 mph 97% 0.03 in
16:20 43.5 °F 42.8 °F 29.4 in WNW 9.8 mph 10.7 mph 97% 0.02 in
16:30 43.3 °F 42.8 °F 29.4 in West 3.6 mph 16.3 mph 97% 0.01 in
16:40 43.5 °F 42.8 °F 29.4 in WNW 13.2 mph 13.2 mph 97% 0.01 in
16:50 43.7 °F 42.8 °F 29.4 in West 11 mph 13.2 mph 97% 0 in
17:00 43.7 °F 42.8 °F 29.4 in WNW 6.3 mph 10.7 mph 97% 0 in
17:10 44.1 °F 42.8 °F 29.4 in West 4.3 mph 7.6 mph 96% 0 in
17:20 44.8 °F 44.6 °F 29.4 in West 7.8 mph 8.7 mph 96% 0 in
17:30 45.5 °F 44.6 °F 29.4 in NNW 7.8 mph 15.4 mph 93% 0 in
17:40 46 °F 42.8 °F 29.4 in WSW 4.3 mph 11 mph 91% 0 in
17:50 46 °F 42.8 °F 29.4 in WSW 6.5 mph 9.8 mph 89% 0 in
18:00 45.5 °F 42.8 °F 29.4 in West 6.5 mph 12.3 mph 88% 0 in
18:10 45.3 °F 42.8 °F 29.4 in West 7.6 mph 15.2 mph 88% 0 in
18:20 45.1 °F 42.8 °F 29.4 in WSW 12.5 mph 12.5 mph 88% 0 in
18:30 44.8 °F 41 °F 29.4 in West 6.3 mph 12.8 mph 86% 0 in
18:40 44.2 °F 41 °F 29.4 in West 11.4 mph 15.2 mph 86% 0 in
18:50 43.7 °F 41 °F 29.4 in West 10.7 mph 16.3 mph 86% 0 in
19:00 43.3 °F 39.2 °F 29.4 in WSW 7.6 mph 11.2 mph 86% 0 in
19:10 43 °F 39.2 °F 29.4 in WSW 7.4 mph 14.3 mph 87% 0 in
19:20 42.4 °F 39.2 °F 29.4 in WSW 5.8 mph 10.1 mph 88% 0 in
19:30 41.7 °F 39.2 °F 29.5 in Calm   8.5 mph 89% 0 in
19:40 41.4 °F 39.2 °F 29.5 in WSW 6 mph 9.2 mph 91% 0 in
19:50 41 °F 39.2 °F 29.5 in SW 4.9 mph 8.1 mph 91% 0 in
20:00 40.8 °F 39.2 °F 29.5 in WSW 5.4 mph 8.7 mph 93% 0 in
20:10 40.5 °F 39.2 °F 29.5 in WSW 5.8 mph 7.6 mph 93% 0 in
20:20 40.5 °F 39.2 °F 29.5 in WSW 8.1 mph 10.1 mph 94% 0 in
20:30 40.3 °F 39.2 °F 29.5 in WSW 6.9 mph 8.5 mph 94% 0 in
20:40 39.9 °F 37.4 °F 29.5 in WSW 6.3 mph 9.6 mph 94% 0 in
20:50 39.6 °F 37.4 °F 29.5 in Calm   7.8 mph 94% 0 in
21:00 39.4 °F 37.4 °F 29.5 in WSW 4.9 mph 8.1 mph 94% 0 in
21:10 39.4 °F 37.4 °F 29.5 in WSW 5.8 mph 7.2 mph 95% 0 in
21:20 39 °F 37.4 °F 29.5 in WSW 4.9 mph 6.3 mph 94% 0 in
21:30 38.8 °F 37.4 °F 29.5 in WSW 6.7 mph 6.7 mph 94% 0 in
21:40 38.8 °F 37.4 °F 29.5 in WSW 5.8 mph 8.1 mph 95% 0 in
21:50 38.8 °F 37.4 °F 29.5 in WSW 6 mph 7.4 mph 96% 0 in
22:00 38.7 °F 37.4 °F 29.5 in WSW 8.7 mph 8.7 mph 96% 0 in
22:10 38.5 °F 37.4 °F 29.5 in WSW 5.8 mph 8.1 mph 96% 0 in
22:20 38.7 °F 37.4 °F 29.5 in WSW 6 mph 8.7 mph 97% 0 in
22:30 38.8 °F 37.4 °F 29.5 in WSW 7.4 mph 12.3 mph 97% 0 in
22:40 38.7 °F 37.4 °F 29.5 in WSW 5.4 mph 8.1 mph 97% 0 in
22:50 38.1 °F 37.4 °F 29.5 in WSW 4.9 mph 5.4 mph 96% 0 in
23:00 37.9 °F 37.4 °F 29.5 in WSW 6.5 mph 6.5 mph 96% 0 in
23:10 38.1 °F 37.4 °F 29.5 in WSW 5.4 mph 6.9 mph 97% 0 in
23:20 37.9 °F 37.4 °F 29.5 in SW 6 mph 6 mph 97% 0 in
23:30 38.3 °F 39.2 °F 29.5 in WSW 7.4 mph 7.6 mph 98% 0 in
23:40 38.5 °F 39.2 °F 29.5 in WSW 5.8 mph 8.5 mph 98% 0 in
23:50 38.7 °F 39.2 °F 29.5 in WSW 5.6 mph 8.5 mph 98% 0 in
Données Historique de Météo Turbie

Mise a jour : 18/06/2018 01:45:16
Généré par Cumulus 1.9.4 (1099)